Voltar ao catálogo

SL-8 R/B

AtivoLEO
NORAD 12328·ROCKET BODY·🇷🇺 Russia

Lançado Mar 6, 1981 de Plesetsk Cosmodrome

Loading…

Próximas Passagens (próximas 24 horas)

TLE

AtualizadoSource: Space-Track

Época: Sep 14, 2026, 04:35 UTC

1 12328U 81022J   26257.19158050 -.00000039  00000-0 -21325-3 0  9990
2 12328  74.0249 180.2267 0150611 243.8131 270.8289 12.23771401 33815

Acompanhe SL-8 R/B em tempo real com AllMySat

Download on the App Store